Powrót do katalogu

DELTA 1 DEB

AktywnySSO
NORAD 10869·DEBRIS·🇺🇸 United States

Wystrzelony Jul 29, 1976 z Vandenberg Space Force Base

Loading…

Następne Przeloty (najbliższe 24 godziny)

TLE

ŚwieżeSource: Space-Track

Epoka: Sep 14, 2026, 07:19 UTC

1 10869U 76077CX  26257.30514358  .00000058  00000-0  74770-3 0  9993
2 10869 102.2847  30.8963 0026957 350.0739  39.2710 12.43476503272407

Śledź DELTA 1 DEB w czasie rzeczywistym z AllMySat

Download on the App Store